Change the Weather History Date:

Sunday, October 14, 2012

  Actual Average (KFLL) Record (KFLL)
Temperature  
Mean Temperature 80 °F 81 °F  
Max Temperature 86 °F 86 °F 93 °F (2003)
Min Temperature 75 °F 76 °F 57 °F (1977)
Degree Days  
Heating Degree Days 0 0  
Month to date heating degree days 0  
Since 1 July heating degree days 0  
Cooling Degree Days 16 16  
Month to date cooling degree days 235  
Year to date cooling degree days 3947  
Growing Degree Days 30 (Base 50)    
Moisture  
Dew Point 73 °F    
Average Humidity 83    
Maximum Humidity 100    
Minimum Humidity 65    
Precipitation  
Precipitation 0.77 in 0.23 in 3.36 in (1999)
Month to date precipitation 3.84  
Year to date precipitation 53.50  
Snow  
Snow 0.00 in - - ()
Month to date snowfall  
Since 1 July snowfall  
Since 1 September snowfall  
Snow Depth -    
Sea Level Pressure  
Sea Level Pressure 29.99 in    
Wind  
Wind Speed 14 mph (ENE)    
Max Wind Speed 23 mph    
Max Gust Speed 38 mph    
Visibility 5 miles    
Events Fog , Rain , Thunderstorm    
T = Trace of Precipitation, MM = Missing Value Source: NWS Daily Summary

Daily Weather History Graph

Daily Weather History Graph

Search for Another Location

Airport or City:

Trip Planner

Search our weather history database for the weather conditions in past years. The results will help you decide how hot, cold, wet, or windy it might be!

Date:

Astronomy

Oct. 14, 2012 Rise Set
Actual Time 7:19 AM EDT 6:53 PM EDT
Civil Twilight 6:56 AM EDT 7:16 PM EDT
Nautical Twilight 6:29 AM EDT 7:43 PM EDT
Astronomical Twilight 6:02 AM EDT 8:10 PM EDT
Moon 6:18 AM EDT (10/14) 6:13 PM EDT (10/14)
Length of Visible Light 12h 20m
Length of Day
11h 34m
Waning Crescent, 1% of the Moon is Illuminated
Oct 14
Waning Crescent
Oct 15
New
Oct 21
First Quarter
Oct 29
Full
Nov 6
Last Quarter

Hourly Weather History & Observations

Time (EDT) Temp. Heat Index Dew Point Humidity Pressure Visibility Wind Dir Wind Speed Gust Speed Precip Events Conditions
12:53 AM 78.1 °F - 66.0 °F 66% 30.07 in 10.0 mi ENE 12.7 mph - N/A   Mostly Cloudy
1:53 AM 79.0 °F - 68.0 °F 69% 30.04 in 9.0 mi ENE 10.4 mph - N/A   Mostly Cloudy
2:53 AM 79.0 °F - 70.0 °F 74% 30.03 in 8.0 mi NE 16.1 mph - N/A   Overcast
3:53 AM 80.1 °F 83.2 °F 70.0 °F 71% 30.01 in 8.0 mi ENE 15.0 mph 21.9 mph N/A   Overcast
4:53 AM 79.0 °F - 72.0 °F 79% 30.01 in 8.0 mi ENE 16.1 mph 23.0 mph 0.00 in   Overcast
5:53 AM 79.0 °F - 71.1 °F 77% 30.01 in 8.0 mi ENE 11.5 mph 25.3 mph N/A   Mostly Cloudy
6:33 AM 78.8 °F - 69.8 °F 74% 30.01 in 8.0 mi ENE 13.8 mph - N/A   Overcast
6:41 AM 78.8 °F - 69.8 °F 74% 30.01 in 8.0 mi ENE 17.3 mph 23.0 mph N/A   Overcast
6:53 AM 80.1 °F 83.6 °F 71.1 °F 74% 30.01 in 8.0 mi ENE 16.1 mph - N/A   Overcast
7:53 AM 80.1 °F 83.6 °F 71.1 °F 74% 30.03 in 7.0 mi ENE 17.3 mph 23.0 mph N/A   Overcast
8:53 AM 81.0 °F 84.9 °F 71.1 °F 72% 30.04 in 7.0 mi ENE 19.6 mph 27.6 mph N/A   Overcast
9:53 AM 82.0 °F 86.7 °F 72.0 °F 71% 30.04 in 7.0 mi ENE 23.0 mph 31.1 mph N/A   Overcast
10:07 AM 82.4 °F 87.2 °F 71.6 °F 70% 30.04 in 7.0 mi ENE 20.7 mph 27.6 mph N/A   Overcast
10:21 AM 82.4 °F 87.2 °F 71.6 °F 70% 30.04 in 7.0 mi ENE 23.0 mph 38.0 mph N/A   Overcast
10:46 AM 82.4 °F 88.2 °F 73.4 °F 74% 30.04 in 7.0 mi ENE 17.3 mph 26.5 mph 0.00 in   Overcast
10:53 AM 82.9 °F 88.8 °F 73.0 °F 72% 30.05 in 7.0 mi ENE 23.0 mph 32.2 mph 0.00 in   Overcast
11:53 AM 82.9 °F 89.4 °F 73.9 °F 74% 30.03 in 7.0 mi ENE 18.4 mph 29.9 mph 0.00 in   Mostly Cloudy
12:53 PM 81.0 °F 86.2 °F 73.9 °F 79% 30.01 in 4.0 mi ENE 17.3 mph 29.9 mph 0.00 in Rain Light Rain
1:23 PM 84.2 °F 90.9 °F 73.4 °F 70% 30.00 in 7.0 mi ENE 20.7 mph 32.2 mph 0.00 in   Mostly Cloudy
1:53 PM 84.9 °F 92.1 °F 73.9 °F 69% 29.99 in 7.0 mi ENE 19.6 mph 28.8 mph 0.00 in   Mostly Cloudy
2:30 PM 84.2 °F 92.3 °F 75.2 °F 74% 29.97 in 7.0 mi East 16.1 mph 25.3 mph N/A   Mostly Cloudy
2:49 PM 84.2 °F 90.9 °F 73.4 °F 70% 29.96 in 9.0 mi ENE 20.7 mph 26.5 mph N/A   Mostly Cloudy
2:53 PM 86.0 °F 93.0 °F 73.0 °F 65% 29.97 in 9.0 mi ENE 18.4 mph 26.5 mph N/A   Scattered Clouds
3:19 PM 84.2 °F 90.9 °F 73.4 °F 70% 29.97 in 8.0 mi NE 17.3 mph 26.5 mph N/A   Mostly Cloudy
3:44 PM 80.6 °F 85.4 °F 73.4 °F 79% 29.97 in 1.8 mi East 23.0 mph 36.8 mph 0.04 in Rain Light Rain
3:58 PM 77.0 °F - 73.4 °F 89% 29.96 in 0.8 mi ESE 15.0 mph 24.2 mph 0.08 in Rain Heavy Rain
4:03 PM 77.0 °F - 73.4 °F 89% 29.97 in 1.0 mi ESE 12.7 mph 24.2 mph 0.09 in Rain Rain
4:06 PM 77.0 °F - 75.2 °F 94% 29.97 in 2.0 mi East 13.8 mph - 0.09 in Rain Light Rain
4:12 PM 77.0 °F - 73.4 °F 89% 29.97 in 1.5 mi East 16.1 mph 21.9 mph 0.12 in Rain Rain
4:26 PM 77.0 °F - 75.2 °F 94% 29.96 in 3.0 mi East 9.2 mph - 0.14 in Rain Light Rain
4:36 PM 78.8 °F - 75.2 °F 89% 29.97 in 2.5 mi ENE 15.0 mph 21.9 mph 0.17 in Thunderstorm Overcast
4:38 PM 78.8 °F - 75.2 °F 89% 29.97 in 1.0 mi ENE 17.3 mph 23.0 mph 0.24 in Rain , Thunderstorm Light Thunderstorms and Rain
4:41 PM 77.0 °F - 73.4 °F 89% 29.97 in 0.8 mi ENE 15.0 mph 23.0 mph 0.25 in Rain , Thunderstorm Heavy Thunderstorms and Rain
4:48 PM 75.2 °F - 73.4 °F 94% 29.98 in 1.8 mi ENE 11.5 mph - 0.25 in Rain , Thunderstorm Light Thunderstorms and Rain
4:53 PM 75.9 °F - 73.9 °F 94% 29.98 in 1.5 mi NE 12.7 mph - 0.29 in Rain , Thunderstorm Thunderstorms and Rain
5:02 PM 75.2 °F - 73.4 °F 94% 29.96 in 1.0 mi NE 8.1 mph - 0.06 in Rain , Thunderstorm Heavy Thunderstorms and Rain
5:07 PM 75.2 °F - 73.4 °F 94% 29.96 in 2.0 mi ENE 8.1 mph - 0.06 in Rain , Thunderstorm Light Thunderstorms and Rain
5:16 PM 77.0 °F - 75.2 °F 94% 29.96 in 5.0 mi East 8.1 mph - 0.07 in Rain , Thunderstorm Light Thunderstorms and Rain
5:33 PM 75.2 °F - 73.4 °F 94% 29.96 in 1.2 mi ESE 12.7 mph 19.6 mph 0.14 in Rain , Thunderstorm Light Thunderstorms and Rain
5:35 PM 75.2 °F - 73.4 °F 94% 29.97 in 1.0 mi East 12.7 mph - 0.16 in Rain , Thunderstorm Heavy Thunderstorms and Rain
5:42 PM 75.2 °F - 73.4 °F 94% 29.97 in 0.5 mi East 13.8 mph - 0.33 in Fog , Rain , Thunderstorm Heavy Thunderstorms and Rain
5:50 PM 75.2 °F - 73.4 °F 94% 29.96 in 1.0 mi East 10.4 mph - 0.38 in Rain , Thunderstorm Heavy Thunderstorms and Rain
5:53 PM 75.0 °F - 73.0 °F 94% 29.96 in 1.2 mi East 8.1 mph - 0.39 in Rain , Thunderstorm Thunderstorms and Rain
6:03 PM 75.2 °F - 73.4 °F 94% 29.96 in 2.5 mi East 12.7 mph - 0.02 in Rain , Thunderstorm Light Thunderstorms and Rain
6:13 PM 75.2 °F - 73.4 °F 94% 29.96 in 1.2 mi East 10.4 mph - 0.07 in Rain , Thunderstorm Thunderstorms and Rain
6:24 PM 75.2 °F - 73.4 °F 94% 29.95 in 3.0 mi East 5.8 mph - 0.09 in Rain , Thunderstorm Light Thunderstorms and Rain
6:34 PM 75.2 °F - 75.2 °F 100% 29.95 in 5.0 mi ENE 3.5 mph - 0.09 in Rain Light Rain
6:53 PM 75.9 °F - 75.0 °F 97% 29.95 in 7.0 mi NNE 4.6 mph - 0.09 in   Scattered Clouds
7:53 PM 78.1 °F - 75.9 °F 93% 29.96 in 9.0 mi NE 6.9 mph - 0.00 in   Mostly Cloudy
8:53 PM 78.1 °F - 75.0 °F 90% 29.97 in 9.0 mi ENE 8.1 mph - N/A   Partly Cloudy
9:53 PM 78.1 °F - 75.0 °F 90% 29.97 in 9.0 mi ENE 6.9 mph - N/A   Clear
10:53 PM 78.1 °F - 75.0 °F 90% 29.97 in 9.0 mi ENE 5.8 mph - N/A   Mostly Cloudy
11:53 PM 78.1 °F - 73.9 °F 87% 29.96 in 9.0 mi NE 6.9 mph - N/A   Partly Cloudy